Regional Weather Roundup
Issued by NWS

Home | Current Version | Previous Version | Text Only | Print | Product List | Glossary Off
Versions: 1 2 3 4 5 6 7 8 9 10 11 12 13 14 15 16 17 18 19 20 21 22 23 24 25 26 27 28 29 30 31 32 33 34 35 36 37 38 39 40 41 42 43 44 45 46 47 48 49 50

000
ASUS44 KMEG 281200
RWRTN
TENNESSEE HOURLY STATE WEATHER ROUNDUP
NATIONAL WEATHER SERVICE MEMPHIS TN
700 AM CDT WED JUN 28 2017

TNZ002-004-019-021-049-052-054-088>092-281300-
WEST TENNESSEE

CITY           SKY/WX    TMP DP  RH WIND       PRES   REMARKS
MEMPHIS INTL   MOSUNNY   72  63  73 S8        30.06R
NWS MEMPHIS      N/A     68 N/A N/A MISG        N/A
JACKSON        SUNNY     65  63  93 CALM      30.10R
$$

TNZ008-025-027-028-033-062-065-066-281300-
NORTH MIDDLE TENNESSEE

CITY           SKY/WX    TMP DP  RH WIND       PRES   REMARKS
NASHVILLE      MOSUNNY   65  58  78 E5        30.16R
CLARKSVILLE    SUNNY     61  57  87 CALM      30.12R
SMYRNA         SUNNY     60  58  92 CALM      30.17R
CROSSVILLE     SUNNY     57  54  89 CALM      30.20R
$$

TNZ061-075-076-078-094-096-097-281300-
SOUTH MIDDLE TENNESSEE

CITY           SKY/WX    TMP DP  RH WIND       PRES   REMARKS
$$

TNZ017-018-042-046-047-281300-
NORTHEAST TENNESSEE

CITY           SKY/WX    TMP DP  RH WIND       PRES   REMARKS
TRI CITIES     SUNNY     56  52  86 CALM      30.21S
$$

TNZ012-013-036-069-073-074-281300-
CENTRAL EAST TENNESSEE

CITY           SKY/WX    TMP DP  RH WIND       PRES   REMARKS
KNOXVILLE      MOSUNNY   59  52  77 NE3       30.16R
OAK RIDGE      SUNNY     60  55  83 CALM      30.18R
GATLINBURG     SUNNY     55  50  82 CALM      30.16S
$$

TNZ083-085-099-281300-
SOUTHEAST TENNESSEE

CITY           SKY/WX    TMP DP  RH WIND       PRES   REMARKS
CHATTANOOGA    MOSUNNY   62  58  86 CALM      30.16R
$$

SKY/WX REPORTED AS FAIR MEANS FEW OR NO CLOUDS BELOW
12 THOUSAND FEET.





USA.gov is the U.S. government's official web portal to all federal, state and local government web resources and services.